Weather History for KMCF - December, 2012

Change the Weather History Date:

Thursday, December 13, 2012

  Actual Average (KTPA) Record (KTPA)
Temperature  
Mean Temperature 64 °F 64 °F  
Max Temperature 73 °F 72 °F 85 °F (1948)
Min Temperature 55 °F 55 °F 18 °F (1962)
Degree Days  
Heating Degree Days 0 4  
Month to date heating degree days 45  
Since 1 July heating degree days 89  
Cooling Degree Days 0 3  
Month to date cooling degree days 40  
Year to date cooling degree days 3570  
Growing Degree Days 14 (Base 50)    
Moisture  
Dew Point 62 °F    
Average Humidity 90    
Maximum Humidity 100    
Minimum Humidity 60    
Precipitation  
Precipitation 0.00 in 0.08 in 2.45 in (1997)
Month to date precipitation 0.98  
Year to date precipitation 44.81  
Sea Level Pressure  
Sea Level Pressure 30.14 in    
Wind  
Wind Speed 9 mph (NNE)    
Max Wind Speed 17 mph    
Max Gust Speed 22 mph    
Visibility 10 miles    
Events      
T = Trace of Precipitation, MM = Missing Value Source: NWS Daily Summary

Daily Weather History Graph

Daily Weather History Graph

Search for Another Location

Airport or City:

Trip Planner

Search our weather history database for the weather conditions in past years. The results will help you decide how hot, cold, wet, or windy it might be!

Date:

Astronomy

Dec. 13, 2012 Rise Set
Actual Time 7:12 AM EST 5:36 PM EST
Civil Twilight 6:46 AM EST 6:02 PM EST
Nautical Twilight 6:17 AM EST 6:31 PM EST
Astronomical Twilight 5:49 AM EST 7:00 PM EST
Moon 7:21 AM EST (12/13) 6:15 PM EST (12/13)
Length of Visible Light 11h 15m
Length of Day
10h 23m
New Moon, 0% of the Moon is Illuminated
Dec 13
New Moon
Dec 20
First Quarter
Dec 28
Full
Jan 4
Last Quarter
Jan 11
New

Hourly Weather History & Observations

Time (EST) Temp. Dew Point Humidity Pressure Visibility Wind Dir Wind Speed Gust Speed Precip Events Conditions
12:08 AM 68.0 °F 68.0 °F 100% 30.09 in 7.0 mi NNW 5.8 mph - N/A   Overcast
12:21 AM 68.0 °F 68.0 °F 100% 30.09 in 10.0 mi NNW 5.8 mph - N/A   Overcast
12:28 AM 68.0 °F 68.0 °F 100% 30.09 in 10.0 mi NNW 6.9 mph - N/A   Overcast
12:55 AM 67.8 °F 67.8 °F 100% 30.08 in 10.0 mi NNW 5.8 mph - N/A   Mostly Cloudy
1:05 AM 68.0 °F 68.0 °F 100% 30.08 in 10.0 mi NNW 6.9 mph - N/A   Mostly Cloudy
1:43 AM 68.0 °F 68.0 °F 100% 30.08 in 10.0 mi NNW 9.2 mph - N/A   Mostly Cloudy
1:46 AM 68.0 °F 68.0 °F 100% 30.08 in 10.0 mi NNW 10.4 mph - N/A   Overcast
1:48 AM 68.0 °F 68.0 °F 100% 30.08 in 10.0 mi NNW 11.5 mph - N/A   Overcast
1:49 AM 68.0 °F 68.0 °F 100% 30.08 in 10.0 mi NNW 12.7 mph - N/A   Overcast
1:55 AM 67.6 °F 67.6 °F 100% 30.08 in 9.0 mi NNW 9.2 mph - N/A   Overcast
2:02 AM 68.0 °F 68.0 °F 100% 30.08 in 9.0 mi North 10.4 mph - N/A   Overcast
2:09 AM 68.0 °F 68.0 °F 100% 30.08 in 10.0 mi North 9.2 mph - N/A   Mostly Cloudy
2:12 AM 68.0 °F 68.0 °F 100% 30.08 in 10.0 mi North 9.2 mph - N/A   Scattered Clouds
2:18 AM 68.0 °F 66.2 °F 94% 30.08 in 10.0 mi North 9.2 mph - N/A   Mostly Cloudy
2:26 AM 68.0 °F 66.2 °F 94% 30.08 in 10.0 mi North 10.4 mph - N/A   Mostly Cloudy
2:55 AM 66.9 °F 66.6 °F 99% 30.08 in 10.0 mi North 8.1 mph - N/A   Overcast
3:10 AM 66.2 °F 66.2 °F 100% 30.09 in 10.0 mi North 8.1 mph - N/A   Overcast
3:38 AM 66.2 °F 66.2 °F 100% 30.08 in 10.0 mi North 5.8 mph - N/A   Overcast
3:55 AM 65.8 °F 65.5 °F 99% 30.08 in 10.0 mi North 9.2 mph - N/A   Overcast
3:58 AM 66.2 °F 66.2 °F 100% 30.08 in 10.0 mi North 9.2 mph - N/A   Overcast
4:35 AM 64.4 °F 64.4 °F 100% 30.09 in 10.0 mi North 9.2 mph 17.3 mph N/A   Overcast
4:39 AM 64.4 °F 64.4 °F 100% 30.09 in 10.0 mi North 6.9 mph 17.3 mph N/A   Overcast
4:55 AM 64.8 °F 64.4 °F 99% 30.10 in 10.0 mi North 10.4 mph - N/A   Overcast
5:43 AM 64.4 °F 62.6 °F 94% 30.12 in 10.0 mi North 9.2 mph - N/A   Overcast
5:51 AM 64.4 °F 64.4 °F 100% 30.12 in 10.0 mi North 11.5 mph - N/A   Overcast
5:55 AM 63.9 °F 63.7 °F 99% 30.12 in 10.0 mi North 9.2 mph - N/A   Overcast
6:04 AM 64.4 °F 62.6 °F 94% 30.12 in 10.0 mi North 8.1 mph - N/A   Overcast
6:05 AM 64.4 °F 62.6 °F 94% 30.12 in 10.0 mi North 8.1 mph - N/A   Overcast
6:06 AM 64.4 °F 62.6 °F 94% 30.12 in 10.0 mi NNE 6.9 mph - N/A   Overcast
6:07 AM 64.4 °F 62.6 °F 94% 30.12 in 10.0 mi North 8.1 mph - N/A   Overcast
6:23 AM 64.4 °F 62.6 °F 94% 30.12 in 10.0 mi North 9.2 mph - N/A   Overcast
6:33 AM 64.4 °F 62.6 °F 94% 30.13 in 10.0 mi NNE 9.2 mph - N/A   Overcast
6:36 AM 64.4 °F 62.6 °F 94% 30.13 in 10.0 mi NNE 9.2 mph - N/A   Overcast
6:41 AM 64.4 °F 62.6 °F 94% 30.13 in 10.0 mi North 8.1 mph - N/A   Overcast
6:55 AM 63.9 °F 63.3 °F 98% 30.14 in 10.0 mi North 10.4 mph 17.3 mph N/A   Overcast
6:59 AM 64.4 °F 62.6 °F 94% 30.14 in 10.0 mi NNE 12.7 mph 17.3 mph N/A   Overcast
7:09 AM 64.4 °F 62.6 °F 94% 30.14 in 10.0 mi NNE 6.9 mph - N/A   Overcast
7:15 AM 64.4 °F 62.6 °F 94% 30.14 in 10.0 mi North 8.1 mph - N/A   Overcast
7:17 AM 64.4 °F 62.6 °F 94% 30.14 in 10.0 mi NNE 9.2 mph - N/A   Overcast
7:21 AM 64.4 °F 62.6 °F 94% 30.14 in 10.0 mi NNE 8.1 mph - N/A   Overcast
7:55 AM 63.5 °F 62.4 °F 96% 30.15 in 10.0 mi NNE 6.9 mph - N/A   Mostly Cloudy
7:59 AM 62.6 °F 62.6 °F 100% 30.15 in 10.0 mi North 9.2 mph - N/A   Scattered Clouds
8:03 AM 62.6 °F 62.6 °F 100% 30.16 in 10.0 mi North 6.9 mph - N/A   Mostly Cloudy
8:04 AM 62.6 °F 62.6 °F 100% 30.16 in 10.0 mi North 5.8 mph - N/A   Scattered Clouds
8:05 AM 62.6 °F 62.6 °F 100% 30.16 in 10.0 mi North 5.8 mph - N/A   Mostly Cloudy
8:55 AM 65.3 °F 63.0 °F 92% 30.17 in 10.0 mi NNE 5.8 mph - N/A   Mostly Cloudy
9:22 AM 66.2 °F 62.6 °F 88% 30.18 in 10.0 mi North 11.5 mph - N/A   Mostly Cloudy
9:28 AM 66.2 °F 62.6 °F 88% 30.18 in 10.0 mi NNE 9.2 mph - N/A   Scattered Clouds
9:55 AM 66.7 °F 61.7 °F 84% 30.19 in 10.0 mi North 10.4 mph - N/A   Partly Cloudy
10:23 AM 69.8 °F 60.8 °F 73% 30.18 in 10.0 mi North 10.4 mph - N/A   Mostly Cloudy
10:55 AM 68.7 °F 60.6 °F 75% 30.19 in 10.0 mi North 10.4 mph - N/A   Mostly Cloudy
11:08 AM 68.0 °F 60.8 °F 78% 30.19 in 10.0 mi NNE 11.5 mph - N/A   Mostly Cloudy
11:09 AM 68.0 °F 60.8 °F 78% 30.19 in 10.0 mi NNE 10.4 mph - N/A   Mostly Cloudy
11:18 AM 68.0 °F 60.8 °F 78% 30.19 in 10.0 mi NE 10.4 mph - N/A   Mostly Cloudy
11:47 AM 71.6 °F 59.0 °F 64% 30.18 in 10.0 mi NNE 9.2 mph 18.4 mph N/A   Mostly Cloudy
11:55 AM 72.7 °F 59.4 °F 63% 30.18 in 10.0 mi NE 10.4 mph - N/A   Mostly Cloudy
11:56 AM 73.4 °F 59.0 °F 61% 30.18 in 10.0 mi ENE 10.4 mph - N/A   Mostly Cloudy
12:28 PM 71.6 °F 59.0 °F 64% 30.17 in 10.0 mi NNE 6.9 mph - N/A   Mostly Cloudy
12:41 PM 71.6 °F 57.2 °F 60% 30.17 in 10.0 mi NNE 8.1 mph - N/A   Scattered Clouds
12:55 PM 71.8 °F 58.3 °F 62% 30.17 in 10.0 mi ENE 5.8 mph - N/A   Mostly Cloudy
1:55 PM 70.9 °F 59.0 °F 66% 30.14 in 10.0 mi ENE 13.8 mph - N/A   Scattered Clouds
2:08 PM 69.8 °F 59.0 °F 68% 30.15 in 10.0 mi ENE 13.8 mph - N/A   Mostly Cloudy
2:55 PM 69.1 °F 59.4 °F 71% 30.15 in 10.0 mi ENE 13.8 mph - N/A   Mostly Cloudy
3:55 PM 66.7 °F 58.6 °F 75% 30.15 in 10.0 mi ENE 10.4 mph - N/A   Overcast
4:55 PM 63.0 °F 57.7 °F 83% 30.15 in 10.0 mi ENE 8.1 mph - N/A   Overcast
5:55 PM 62.6 °F 57.6 °F 84% 30.15 in 10.0 mi ENE 11.5 mph - N/A   Overcast
6:55 PM 61.5 °F 57.4 °F 86% 30.18 in 10.0 mi NE 12.7 mph - N/A   Overcast
7:41 PM 60.8 °F 57.2 °F 88% 30.18 in 10.0 mi ENE 12.7 mph - N/A   Overcast
7:55 PM 59.5 °F 56.7 °F 90% 30.19 in 10.0 mi ENE 15.0 mph - N/A   Overcast
8:32 PM 59.0 °F 55.4 °F 88% 30.20 in 10.0 mi ENE 17.3 mph 21.9 mph N/A   Overcast
8:55 PM 57.7 °F 55.8 °F 93% 30.21 in 10.0 mi ENE 12.7 mph - N/A   Overcast
9:07 PM 57.2 °F 55.4 °F 94% 30.21 in 10.0 mi NE 11.5 mph - N/A   Overcast
9:11 PM 57.2 °F 55.4 °F 94% 30.21 in 10.0 mi NE 11.5 mph - N/A   Overcast
9:12 PM 57.2 °F 55.4 °F 94% 30.21 in 10.0 mi ENE 11.5 mph - N/A   Overcast
9:18 PM 57.2 °F 55.4 °F 94% 30.21 in 10.0 mi ENE 9.2 mph - N/A   Overcast
9:19 PM 57.2 °F 55.4 °F 94% 30.22 in 10.0 mi ENE 10.4 mph - N/A   Overcast
9:27 PM 57.2 °F 55.4 °F 94% 30.22 in 10.0 mi ENE 11.5 mph - N/A   Overcast
9:55 PM 57.6 °F 54.7 °F 90% 30.21 in 10.0 mi NE 8.1 mph - N/A   Overcast
10:45 PM 57.2 °F 53.6 °F 88% 30.21 in 10.0 mi NE 12.7 mph - N/A   Overcast
10:55 PM 56.5 °F 53.8 °F 91% 30.20 in 10.0 mi NE 10.4 mph - N/A   Overcast
11:55 PM 55.9 °F 53.6 °F 92% 30.20 in 10.0 mi NNE 6.9 mph - N/A   Overcast